Location: Meanaryar
(48.4161°N, 4.7315°W)
Time: 16:27:38
(UTC+00:00)

Cosmos 1655 Rocket - Pass Details

Date: 18 September 2020
Orbit: 971 x 1005 km, 82.9° (Epoch: 29 October)

Event Time Altitude Azimuth Distance (km) Brightness Sun altitude
Rises 21:04:02 0° 354° (N) 3,686 7.6 -25.6°
Reaches altitude 10° 21:06:38 10° 359° (N) 2,737 6.8 -26.0°
Enters shadow 21:12:33 51° 69° (ENE) 1,225 4.2 -26.8°
